| time (UTC) | temp F | wind direction | speed knots | gust knots | rain 1hr in | rain 24hr in | rain mn in | humidity % | barometer mb |
| 20260906055903 | 84 | 247 | 0.0 | 0.9 | 0.00 | 0.00 | 0.00 | 47 | 1013.3 |
| 20260906055403 | 84 | 247 | 0.0 | 0.9 | 0.00 | 0.00 | 0.00 | 46 | 1013.3 |
| 20260906054903 | 84 | 247 | 0.0 | 0.9 | 0.00 | 0.00 | 0.00 | 46 | 1013.4 |
| 20260906054403 | 85 | 247 | 0.0 | 0.0 | 0.00 | 0.00 | 0.00 | 45 | 1013.4 |
| 20260906053903 | 85 | 247 | 0.0 | 0.0 | 0.00 | 0.00 | 0.00 | 45 | 1013.4 |
| 20260906053403 | 85 | 247 | 0.0 | 0.9 | 0.00 | 0.00 | 0.00 | 44 | 1013.4 |
| 20260906052903 | 85 | 247 | 0.0 | 2.6 | 0.00 | 0.00 | 0.00 | 43 | 1013.4 |
| 20260906052403 | 85 | 248 | 0.9 | 2.6 | 0.00 | 0.00 | 0.00 | 44 | 1013.5 |
| 20260906051903 | 85 | 291 | 0.9 | 1.7 | 0.00 | 0.00 | 0.00 | 44 | 1013.5 |
| 20260906051403 | 85 | 33 | 0.0 | 0.9 | 0.00 | 0.00 | 0.00 | 45 | 1013.5 |
| 20260906050903 | 85 | 33 | 0.0 | 1.7 | 0.00 | 0.00 | 0.00 | 45 | 1013.5 |
| 20260906050403 | 85 | 33 | 0.0 | 2.6 | 0.00 | 0.00 | 0.00 | 45 | 1013.5 |
| 20260906045903 | 85 | 35 | 0.9 | 2.6 | 0.00 | 0.00 | 0.00 | 45 | 1013.5 |
| 20260906045403 | 86 | 72 | 0.9 | 1.7 | 0.00 | 0.00 | 0.00 | 44 | 1013.5 |
| 20260906044903 | 86 | 38 | 0.0 | 1.7 | 0.00 | 0.00 | 0.00 | 44 | 1013.4 |
| 20260906044403 | 86 | 38 | 0.0 | 1.7 | 0.00 | 0.00 | 0.00 | 44 | 1013.4 |
| 20260906043403 | 87 | 32 | 0.9 | 4.3 | 0.00 | 0.00 | 0.00 | 43 | 1013.3 |
| 20260906042903 | 87 | 24 | 0.9 | 4.3 | 0.00 | 0.00 | 0.00 | 43 | 1013.3 |
| 20260906042403 | 87 | 36 | 0.0 | 4.3 | 0.00 | 0.00 | 0.00 | 42 | 1013.3 |
| 20260906041903 | 87 | 36 | 0.9 | 2.6 | 0.00 | 0.00 | 0.00 | 42 | 1013.4 |
| 20260906041404 | 87 | 38 | 0.9 | 2.6 | 0.00 | 0.00 | 0.00 | 42 | 1013.3 |
| 20260906040903 | 88 | 34 | 0.0 | 2.6 | 0.00 | 0.00 | 0.00 | 41 | 1013.3 |
| 20260906040403 | 88 | 11 | 0.0 | 1.7 | 0.00 | 0.00 | 0.00 | 40 | 1013.2 |
| 20260906035903 | 89 | 38 | 0.9 | 1.7 | 0.00 | 0.00 | 0.00 | 39 | 1013.3 |
| 20260906035403 | 89 | 44 | 0.9 | 1.7 | 0.00 | 0.00 | 0.00 | 38 | 1013.2 |
| 20260906034903 | 89 | 41 | 0.9 | 1.7 | 0.00 | 0.00 | 0.00 | 38 | 1013.2 |
| 20260906034403 | 89 | 34 | 0.9 | 2.6 | 0.00 | 0.00 | 0.00 | 37 | 1013.2 |
| 20260906033903 | 89 | 21 | 0.9 | 2.6 | 0.00 | 0.00 | 0.00 | 38 | 1013.1 |
| 20260906033403 | 89 | 341 | 0.0 | 2.6 | 0.00 | 0.00 | 0.00 | 38 | 1013.1 |
| 20260906032904 | 90 | 0 | 0.9 | 2.6 | 0.00 | 0.00 | 0.00 | 37 | 1012.9 |
| 20260906032403 | 90 | 37 | 0.0 | 2.6 | 0.00 | 0.00 | 0.00 | 37 | 1012.9 |
| 20260906031904 | 90 | 31 | 0.9 | 1.7 | 0.00 | 0.00 | 0.00 | 37 | 1012.8 |
| 20260906031403 | 90 | 19 | 0.0 | 2.6 | 0.00 | 0.00 | 0.00 | 37 | 1012.7 |
| 20260906030903 | 90 | 35 | 0.0 | 2.6 | 0.00 | 0.00 | 0.00 | 37 | 1012.7 |
| 20260906025903 | 90 | 20 | 0.9 | 2.6 | 0.00 | 0.00 | 0.00 | 37 | 1012.6 |
| 20260906025403 | 91 | 21 | 0.9 | 2.6 | 0.00 | 0.00 | 0.00 | 37 | 1012.5 |
| 20260906024903 | 91 | 353 | 0.9 | 2.6 | 0.00 | 0.00 | 0.00 | 36 | 1012.4 |
| 20260906023904 | 91 | 355 | 1.7 | 5.2 | 0.00 | 0.00 | 0.00 | 36 | 1012.5 |
| 20260906023403 | 91 | 319 | 1.7 | 5.2 | 0.00 | 0.00 | 0.00 | 35 | 1012.4 |
| 20260906022903 | 92 | 352 | 1.7 | 7.0 | 0.00 | 0.00 | 0.00 | 35 | 1012.3 |
| 20260906022403 | 92 | 31 | 0.9 | 7.0 | 0.00 | 0.00 | 0.00 | 35 | 1012.2 |
| 20260906021903 | 92 | 0 | 1.7 | 4.3 | 0.00 | 0.00 | 0.00 | 35 | 1012.2 |
| 20260906021404 | 92 | 346 | 1.7 | 4.3 | 0.00 | 0.00 | 0.00 | 35 | 1012.2 |
| 20260906020903 | 92 | 328 | 0.9 | 2.6 | 0.00 | 0.00 | 0.00 | 34 | 1012.1 |
| 20260906020403 | 92 | 356 | 0.9 | 4.3 | 0.00 | 0.00 | 0.00 | 34 | 1012.1 |
| 20260906015903 | 93 | 354 | 0.9 | 5.2 | 0.00 | 0.00 | 0.00 | 33 | 1012.1 |
| 20260906015403 | 93 | 341 | 0.9 | 5.2 | 0.00 | 0.00 | 0.00 | 33 | 1012.1 |
| 20260906014903 | 93 | 324 | 1.7 | 5.2 | 0.00 | 0.00 | 0.00 | 33 | 1012.0 |
| 20260906014404 | 93 | 1 | 0.9 | 4.3 | 0.00 | 0.00 | 0.00 | 32 | 1012.1 |
| 20260906013903 | 93 | 357 | 0.9 | 5.2 | 0.00 | 0.00 | 0.00 | 32 | 1012.0 |
| 20260906013403 | 94 | 338 | 1.7 | 5.2 | 0.00 | 0.00 | 0.00 | 32 | 1012.0 |
| 20260906012903 | 94 | 327 | 1.7 | 5.2 | 0.00 | 0.00 | 0.00 | 32 | 1012.1 |
| 20260906012403 | 94 | 284 | 2.6 | 5.2 | 0.00 | 0.00 | 0.00 | 31 | 1012.0 |
| 20260906011904 | 95 | 284 | 0.9 | 4.3 | 0.00 | 0.00 | 0.00 | 31 | 1012.1 |
| 20260906011404 | 95 | 289 | 1.7 | 4.3 | 0.00 | 0.00 | 0.00 | 31 | 1012.0 |
| 20260906010903 | 95 | 235 | 1.7 | 7.8 | 0.00 | 0.00 | 0.00 | 31 | 1012.0 |
| 20260906005904 | 95 | 343 | 1.7 | 7.0 | 0.00 | 0.00 | 0.00 | 31 | 1012.1 |
| 20260906004904 | 96 | 227 | 1.7 | 5.2 | 0.00 | 0.00 | 0.00 | 31 | 1012.2 |
| 20260906004403 | 96 | 249 | 1.7 | 6.1 | 0.00 | 0.00 | 0.00 | 31 | 1012.2 |
| 20260906003903 | 96 | 183 | 1.7 | 6.1 | 0.00 | 0.00 | 0.00 | 30 | 1012.1 |
| 20260906003403 | 96 | 204 | 1.7 | 4.3 | 0.00 | 0.00 | 0.00 | 31 | 1012.2 |
| 20260906002904 | 96 | 215 | 1.7 | 5.2 | 0.00 | 0.00 | 0.00 | 31 | 1012.2 |
| 20260906002404 | 96 | 298 | 2.6 | 5.2 | 0.00 | 0.00 | 0.00 | 30 | 1012.0 |
| 20260906001904 | 96 | 323 | 1.7 | 7.8 | 0.00 | 0.00 | 0.00 | 31 | 1012.2 |
| 20260906001403 | 96 | 214 | 1.7 | 8.7 | 0.00 | 0.00 | 0.00 | 31 | 1012.2 |
| 20260906000903 | 97 | 248 | 2.6 | 8.7 | 0.00 | 0.00 | 0.00 | 31 | 1012.0 |
| 20260906000404 | 97 | 235 | 2.6 | 5.2 | 0.00 | 0.00 | 0.00 | 30 | 1012.2 |
| 20260905235903 | 98 | 230 | 1.7 | 6.1 | 0.00 | 0.00 | 0.00 | 30 | 1012.1 |
| 20260905234903 | 98 | 220 | 1.7 | 7.0 | 0.00 | 0.00 | 0.00 | 30 | 1012.1 |
| 20260905234403 | 98 | 232 | 2.6 | 7.0 | 0.00 | 0.00 | 0.00 | 30 | 1012.0 |
| 20260905233904 | 98 | 272 | 3.5 | 7.0 | 0.00 | 0.00 | 0.00 | 30 | 1012.1 |
| 20260905233404 | 98 | 185 | 2.6 | 7.0 | 0.00 | 0.00 | 0.00 | 30 | 1012.1 |
| 20260905232904 | 98 | 0 | 2.6 | 6.1 | 0.00 | 0.00 | 0.00 | 30 | 1012.1 |
| 20260905231904 | 99 | 243 | 1.7 | 8.7 | 0.00 | 0.00 | 0.00 | 29 | 1012.1 |
| 20260905231403 | 99 | 213 | 4.3 | 8.7 | 0.00 | 0.00 | 0.00 | 29 | 1012.1 |
| 20260905230903 | 99 | 226 | 1.7 | 8.7 | 0.00 | 0.00 | 0.00 | 29 | 1012.2 |
| 20260905225903 | 99 | 247 | 2.6 | 7.8 | 0.00 | 0.00 | 0.00 | 29 | 1012.2 |
| 20260905224403 | 99 | 174 | 2.6 | 7.0 | 0.00 | 0.00 | 0.00 | 29 | 1012.3 |
| 20260905223904 | 99 | 228 | 2.6 | 7.0 | 0.00 | 0.00 | 0.00 | 29 | 1012.4 |
| 20260905223405 | 100 | 136 | 1.7 | 6.1 | 0.00 | 0.00 | 0.00 | 29 | 1012.4 |
| 20260905222903 | 100 | 201 | 2.6 | 6.1 | 0.00 | 0.00 | 0.00 | 29 | 1012.4 |
| 20260905222403 | 99 | 322 | 1.7 | 7.0 | 0.00 | 0.00 | 0.00 | 29 | 1012.5 |
| 20260905221903 | 99 | 227 | 1.7 | 7.0 | 0.00 | 0.00 | 0.00 | 29 | 1012.6 |
| 20260905221404 | 99 | 225 | 2.6 | 8.7 | 0.00 | 0.00 | 0.00 | 28 | 1012.7 |
| 20260905220903 | 100 | 235 | 4.3 | 8.7 | 0.00 | 0.00 | 0.00 | 28 | 1012.7 |
| 20260905220403 | 99 | 219 | 1.7 | 6.1 | 0.00 | 0.00 | 0.00 | 28 | 1012.7 |
| 20260905215903 | 100 | 212 | 1.7 | 6.1 | 0.00 | 0.00 | 0.00 | 28 | 1012.9 |
| 20260905215404 | 99 | 53 | 1.7 | 6.1 | 0.00 | 0.00 | 0.00 | 27 | 1012.8 |
| 20260905214903 | 99 | 208 | 4.3 | 6.1 | 0.00 | 0.00 | 0.00 | 28 | 1013.0 |
| 20260905213903 | 99 | 221 | 2.6 | 7.0 | 0.00 | 0.00 | 0.00 | 28 | 1013.2 |
| 20260905213404 | 99 | 212 | 2.6 | 6.1 | 0.00 | 0.00 | 0.00 | 27 | 1013.1 |
| 20260905212903 | 100 | 303 | 1.7 | 7.0 | 0.00 | 0.00 | 0.00 | 28 | 1013.2 |
| 20260905212403 | 99 | 321 | 2.6 | 7.8 | 0.00 | 0.00 | 0.00 | 29 | 1013.2 |
| 20260905211903 | 99 | 225 | 2.6 | 7.8 | 0.00 | 0.00 | 0.00 | 29 | 1013.2 |
| 20260905211403 | 99 | 266 | 1.7 | 6.1 | 0.00 | 0.00 | 0.00 | 29 | 1013.2 |
| 20260905210903 | 100 | 248 | 2.6 | 6.1 | 0.00 | 0.00 | 0.00 | 29 | 1013.4 |
| 20260905210403 | 99 | 226 | 1.7 | 7.8 | 0.00 | 0.00 | 0.00 | 29 | 1013.5 |
| 20260905205903 | 100 | 219 | 1.7 | 7.8 | 0.00 | 0.00 | 0.00 | 28 | 1013.6 |
| 20260905205404 | 100 | 274 | 2.6 | 7.8 | 0.00 | 0.00 | 0.00 | 29 | 1013.6 |
| 20260905204904 | 99 | 246 | 1.7 | 6.1 | 0.00 | 0.00 | 0.00 | 30 | 1013.6 |
| 20260905203903 | 99 | 242 | 1.7 | 7.0 | 0.00 | 0.00 | 0.00 | 30 | 1013.9 |
| 20260905203404 | 97 | 233 | 1.7 | 7.0 | 0.00 | 0.00 | 0.00 | 31 | 1013.9 |
| 20260905202903 | 98 | 229 | 3.5 | 7.0 | 0.00 | 0.00 | 0.00 | 31 | 1014.1 |
| 20260905202403 | 98 | 234 | 2.6 | 7.0 | 0.00 | 0.00 | 0.00 | 31 | 1014.1 |
| 20260905201904 | 98 | 247 | 4.3 | 7.0 | 0.00 | 0.00 | 0.00 | 30 | 1014.2 |
| 20260905201403 | 98 | 231 | 2.6 | 6.1 | 0.00 | 0.00 | 0.00 | 30 | 1014.2 |
| 20260905200904 | 98 | 224 | 2.6 | 6.1 | 0.00 | 0.00 | 0.00 | 31 | 1014.3 |
| 20260905200403 | 98 | 210 | 2.6 | 6.1 | 0.00 | 0.00 | 0.00 | 31 | 1014.4 |
| 20260905195903 | 98 | 214 | 1.7 | 6.1 | 0.00 | 0.00 | 0.00 | 32 | 1014.4 |
| 20260905195403 | 97 | 220 | 2.6 | 6.1 | 0.00 | 0.00 | 0.00 | 31 | 1014.5 |
| 20260905194903 | 98 | 192 | 2.6 | 6.1 | 0.00 | 0.00 | 0.00 | 32 | 1014.6 |
| 20260905194403 | 97 | 239 | 1.7 | 7.0 | 0.00 | 0.00 | 0.00 | 32 | 1014.6 |
| 20260905193903 | 97 | 233 | 4.3 | 7.0 | 0.00 | 0.00 | 0.00 | 31 | 1014.6 |
| 20260905192403 | 97 | 224 | 2.6 | 7.8 | 0.00 | 0.00 | 0.00 | 32 | 1014.9 |
| 20260905191904 | 97 | 311 | 2.6 | 7.8 | 0.00 | 0.00 | 0.00 | 32 | 1015.0 |
| 20260905191403 | 97 | 241 | 3.5 | 6.1 | 0.00 | 0.00 | 0.00 | 32 | 1015.0 |
| 20260905190904 | 96 | 239 | 1.7 | 5.2 | 0.00 | 0.00 | 0.00 | 33 | 1015.2 |
| 20260905190404 | 96 | 236 | 1.7 | 5.2 | 0.00 | 0.00 | 0.00 | 33 | 1015.3 |
| 20260905185903 | 96 | 142 | 1.7 | 7.0 | 0.00 | 0.00 | 0.00 | 33 | 1015.2 |
| 20260905185403 | 96 | 225 | 2.6 | 7.0 | 0.00 | 0.00 | 0.00 | 33 | 1015.3 |
| 20260905184904 | 96 | 199 | 1.7 | 6.1 | 0.00 | 0.00 | 0.00 | 33 | 1015.3 |
| 20260905184403 | 96 | 221 | 2.6 | 6.1 | 0.00 | 0.00 | 0.00 | 33 | 1015.3 |
| 20260905183903 | 95 | 228 | 1.7 | 7.0 | 0.00 | 0.00 | 0.00 | 33 | 1015.4 |
| 20260905183403 | 96 | 57 | 2.6 | 7.0 | 0.00 | 0.00 | 0.00 | 34 | 1015.5 |
| 20260905182904 | 95 | 235 | 1.7 | 5.2 | 0.00 | 0.00 | 0.00 | 34 | 1015.5 |
| 20260905182404 | 95 | 269 | 1.7 | 7.0 | 0.00 | 0.00 | 0.00 | 34 | 1015.7 |
| 20260905181903 | 95 | 230 | 1.7 | 7.0 | 0.00 | 0.00 | 0.00 | 34 | 1015.6 |
| 20260905181403 | 95 | 204 | 1.7 | 5.2 | 0.00 | 0.00 | 0.00 | 35 | 1015.7 |
| 20260905180903 | 95 | 137 | 1.7 | 7.0 | 0.00 | 0.00 | 0.00 | 35 | 1015.7 |
| 20260905180404 | 94 | 217 | 2.6 | 7.0 | 0.00 | 0.00 | 0.00 | 35 | 1015.7 |
| 20260905175904 | 93 | 232 | 2.6 | 7.0 | 0.00 | 0.00 | 0.00 | 36 | 1015.7 |
| 20260905175404 | 93 | 228 | 1.7 | 5.2 | 0.00 | 0.00 | 0.00 | 36 | 1015.8 |
| 20260905174903 | 93 | 235 | 1.7 | 4.3 | 0.00 | 0.00 | 0.00 | 37 | 1015.8 |
| 20260905174403 | 93 | 201 | 0.9 | 4.3 | 0.00 | 0.00 | 0.00 | 37 | 1015.9 |
| 20260905173903 | 93 | 195 | 1.7 | 4.3 | 0.00 | 0.00 | 0.00 | 37 | 1015.9 |
| 20260905173404 | 93 | 227 | 2.6 | 4.3 | 0.00 | 0.00 | 0.00 | 37 | 1015.9 |
| 20260905172904 | 92 | 61 | 1.7 | 2.6 | 0.00 | 0.00 | 0.00 | 39 | 1015.9 |
| 20260905172403 | 91 | 205 | 0.9 | 2.6 | 0.00 | 0.00 | 0.00 | 40 | 1015.9 |
| 20260905171904 | 91 | 73 | 1.7 | 2.6 | 0.00 | 0.00 | 0.00 | 39 | 1015.9 |
| 20260905171403 | 92 | 218 | 0.9 | 2.6 | 0.00 | 0.00 | 0.00 | 40 | 1016.1 |
| 20260905170904 | 91 | 189 | 1.7 | 2.6 | 0.00 | 0.00 | 0.00 | 40 | 1016.0 |
| 20260905170403 | 90 | 234 | 0.9 | 2.6 | 0.00 | 0.00 | 0.00 | 43 | 1016.0 |
| 20260905165903 | 90 | 238 | 1.7 | 2.6 | 0.00 | 0.00 | 0.00 | 43 | 1016.1 |
| 20260905164903 | 89 | 132 | 0.0 | 2.6 | 0.00 | 0.00 | 0.00 | 45 | 1016.1 |
| 20260905164403 | 89 | 172 | 1.7 | 2.6 | 0.00 | 0.00 | 0.00 | 46 | 1016.2 |
| 20260905163903 | 88 | 215 | 0.9 | 2.6 | 0.00 | 0.00 | 0.00 | 46 | 1016.0 |
| 20260905163403 | 88 | 189 | 0.9 | 2.6 | 0.00 | 0.00 | 0.00 | 49 | 1016.0 |
| 20260905162903 | 88 | 95 | 1.7 | 2.6 | 0.00 | 0.00 | 0.00 | 49 | 1016.0 |
| 20260905162404 | 87 | 106 | 0.0 | 2.6 | 0.00 | 0.00 | 0.00 | 50 | 1016.1 |
| 20260905161904 | 87 | 94 | 0.9 | 2.6 | 0.00 | 0.00 | 0.00 | 49 | 1016.2 |
| 20260905161403 | 86 | 157 | 0.0 | 2.6 | 0.00 | 0.00 | 0.00 | 51 | 1016.0 |
| 20260905160403 | 86 | 87 | 0.9 | 2.6 | 0.00 | 0.00 | 0.00 | 52 | 1016.1 |
| 20260905155903 | 86 | 88 | 0.9 | 2.6 | 0.00 | 0.00 | 0.00 | 53 | 1016.1 |
| 20260905155404 | 85 | 158 | 0.9 | 2.6 | 0.00 | 0.00 | 0.00 | 53 | 1016.1 |
| 20260905154903 | 85 | 169 | 0.9 | 2.6 | 0.00 | 0.00 | 0.00 | 53 | 1016.1 |
| 20260905154403 | 85 | 96 | 0.9 | 2.6 | 0.00 | 0.00 | 0.00 | 55 | 1016.0 |
| 20260905153903 | 84 | 180 | 0.9 | 2.6 | 0.00 | 0.00 | 0.00 | 54 | 1016.1 |
| 20260905153403 | 84 | 128 | 0.0 | 2.6 | 0.00 | 0.00 | 0.00 | 56 | 1016.1 |
| 20260905152903 | 84 | 120 | 0.9 | 2.6 | 0.00 | 0.00 | 0.00 | 56 | 1016.1 |
| 20260905151903 | 83 | 189 | 0.9 | 2.6 | 0.00 | 0.00 | 0.00 | 57 | 1016.1 |
| 20260905151404 | 83 | 211 | 0.9 | 4.3 | 0.00 | 0.00 | 0.00 | 57 | 1016.0 |
| 20260905150903 | 82 | 129 | 0.9 | 4.3 | 0.00 | 0.00 | 0.00 | 58 | 1016.0 |
| 20260905145903 | 82 | 134 | 0.9 | 2.6 | 0.00 | 0.00 | 0.00 | 60 | 1015.9 |
| 20260905145404 | 82 | 150 | 0.9 | 2.6 | 0.00 | 0.00 | 0.00 | 60 | 1016.0 |
| 20260905144903 | 81 | 165 | 0.9 | 2.6 | 0.00 | 0.00 | 0.00 | 60 | 1015.9 |
| 20260905144404 | 81 | 154 | 0.9 | 2.6 | 0.00 | 0.00 | 0.00 | 61 | 1016.0 |
| 20260905143903 | 80 | 91 | 0.9 | 2.6 | 0.00 | 0.00 | 0.00 | 62 | 1016.1 |
| 20260905142904 | 80 | 105 | 0.9 | 2.6 | 0.00 | 0.00 | 0.00 | 63 | 1016.0 |
| 20260905142403 | 79 | 96 | 0.9 | 2.6 | 0.00 | 0.00 | 0.00 | 63 | 1015.9 |
| 20260905141903 | 79 | 83 | 0.9 | 2.6 | 0.00 | 0.00 | 0.00 | 64 | 1015.7 |
| 20260905141403 | 79 | 100 | 1.7 | 2.6 | 0.00 | 0.00 | 0.00 | 64 | 1015.6 |
| 20260905140403 | 78 | 88 | 0.9 | 2.6 | 0.00 | 0.00 | 0.00 | 66 | 1015.5 |
| 20260905135904 | 77 | 109 | 0.9 | 2.6 | 0.00 | 0.00 | 0.00 | 67 | 1015.4 |
| 20260905135404 | 77 | 125 | 0.0 | 1.7 | 0.00 | 0.00 | 0.00 | 68 | 1015.4 |
| 20260905134903 | 76 | 82 | 0.0 | 0.9 | 0.00 | 0.00 | 0.00 | 69 | 1015.4 |
| 20260905134403 | 75 | 82 | 0.0 | 0.9 | 0.00 | 0.00 | 0.00 | 70 | 1015.3 |
| 20260905133904 | 75 | 82 | 0.0 | 0.9 | 0.00 | 0.00 | 0.00 | 70 | 1015.2 |
| 20260905133404 | 75 | 76 | 0.0 | 2.6 | 0.00 | 0.00 | 0.00 | 70 | 1015.0 |
| 20260905131903 | 75 | 87 | 0.0 | 0.9 | 0.00 | 0.00 | 0.00 | 71 | 1014.7 |
| 20260905131404 | 75 | 92 | 0.0 | 0.9 | 0.00 | 0.00 | 0.00 | 71 | 1014.7 |
| 20260905130903 | 75 | 92 | 0.0 | 0.9 | 0.00 | 0.00 | 0.00 | 71 | 1014.6 |
| 20260905130403 | 75 | 92 | 0.0 | 0.0 | 0.00 | 0.00 | 0.00 | 71 | 1014.6 |
| 20260905124903 | 75 | 92 | 0.0 | 0.9 | 0.00 | 0.00 | 0.00 | 70 | 1014.7 |
| 20260905124403 | 75 | 92 | 0.0 | 0.0 | 0.00 | 0.00 | 0.00 | 69 | 1014.7 |
| 20260905123903 | 75 | 92 | 0.0 | 0.9 | 0.00 | 0.00 | 0.00 | 69 | 1014.6 |
| 20260905123403 | 75 | 92 | 0.0 | 0.9 | 0.00 | 0.00 | 0.00 | 69 | 1014.6 |
| 20260905122904 | 75 | 92 | 0.0 | 0.9 | 0.00 | 0.00 | 0.00 | 69 | 1014.6 |
| 20260905122404 | 75 | 92 | 0.0 | 1.7 | 0.00 | 0.00 | 0.00 | 69 | 1014.4 |
| 20260905121904 | 75 | 92 | 0.0 | 1.7 | 0.00 | 0.00 | 0.00 | 69 | 1014.4 |
| 20260905121403 | 75 | 93 | 0.0 | 1.7 | 0.00 | 0.00 | 0.00 | 69 | 1014.4 |
| 20260905120903 | 75 | 77 | 0.0 | 1.7 | 0.00 | 0.00 | 0.00 | 69 | 1014.4 |
| 20260905120404 | 75 | 63 | 0.0 | 0.9 | 0.00 | 0.00 | 0.00 | 69 | 1014.3 |
| 20260905115904 | 75 | 63 | 0.0 | 0.9 | 0.00 | 0.00 | 0.00 | 69 | 1014.3 |
| 20260905115404 | 76 | 63 | 0.0 | 0.9 | 0.00 | 0.00 | 0.00 | 69 | 1014.3 |
| 20260905114904 | 76 | 63 | 0.0 | 0.9 | 0.00 | 0.00 | 0.00 | 69 | 1014.3 |
| 20260905114403 | 76 | 63 | 0.0 | 0.9 | 0.00 | 0.00 | 0.00 | 68 | 1014.4 |
| 20260905113903 | 76 | 63 | 0.0 | 0.9 | 0.00 | 0.00 | 0.00 | 68 | 1014.5 |
| 20260905112903 | 76 | 63 | 0.0 | 0.9 | 0.00 | 0.00 | 0.00 | 69 | 1014.4 |
| 20260905112403 | 76 | 63 | 0.0 | 0.0 | 0.00 | 0.00 | 0.00 | 69 | 1014.4 |
| 20260905111903 | 76 | 63 | 0.0 | 0.0 | 0.00 | 0.00 | 0.00 | 69 | 1014.4 |
| 20260905111404 | 76 | 63 | 0.0 | 0.0 | 0.00 | 0.00 | 0.00 | 68 | 1014.4 |
| 20260905110904 | 76 | 63 | 0.0 | 0.0 | 0.00 | 0.00 | 0.00 | 68 | 1014.3 |
| 20260905110403 | 77 | 63 | 0.0 | 0.0 | 0.00 | 0.00 | 0.00 | 67 | 1014.3 |
| 20260905105903 | 77 | 63 | 0.0 | 0.0 | 0.00 | 0.00 | 0.00 | 67 | 1014.3 |
| 20260905104404 | 77 | 63 | 0.0 | 0.9 | 0.00 | 0.00 | 0.00 | 66 | 1014.3 |
| 20260905103903 | 77 | 63 | 0.0 | 0.9 | 0.00 | 0.00 | 0.00 | 66 | 1014.2 |
| 20260905103403 | 77 | 63 | 0.0 | 0.9 | 0.00 | 0.00 | 0.00 | 67 | 1014.3 |
| 20260905102904 | 77 | 63 | 0.0 | 1.7 | 0.00 | 0.00 | 0.00 | 66 | 1014.3 |
| 20260905102403 | 77 | 63 | 0.0 | 1.7 | 0.00 | 0.00 | 0.00 | 66 | 1014.3 |
| 20260905101903 | 77 | 78 | 0.0 | 1.7 | 0.00 | 0.00 | 0.00 | 66 | 1014.3 |
| 20260905101404 | 77 | 88 | 0.0 | 1.7 | 0.00 | 0.00 | 0.00 | 66 | 1014.3 |
| 20260905100904 | 77 | 86 | 0.0 | 1.7 | 0.00 | 0.00 | 0.00 | 66 | 1014.3 |
| 20260905100403 | 77 | 87 | 0.9 | 1.7 | 0.00 | 0.00 | 0.00 | 66 | 1014.3 |
| 20260905095403 | 77 | 76 | 0.0 | 0.9 | 0.00 | 0.00 | 0.00 | 66 | 1014.3 |
| 20260905094903 | 77 | 76 | 0.0 | 0.9 | 0.00 | 0.00 | 0.00 | 65 | 1014.3 |
| 20260905094403 | 78 | 76 | 0.0 | 1.7 | 0.00 | 0.00 | 0.00 | 67 | 1014.3 |
| 20260905093903 | 78 | 76 | 0.0 | 1.7 | 0.00 | 0.00 | 0.00 | 66 | 1014.3 |
| 20260905093404 | 78 | 85 | 0.0 | 1.7 | 0.00 | 0.00 | 0.00 | 65 | 1014.3 |
| 20260905092904 | 78 | 62 | 0.0 | 0.9 | 0.00 | 0.00 | 0.00 | 65 | 1014.3 |
| 20260905092404 | 78 | 62 | 0.0 | 0.9 | 0.00 | 0.00 | 0.00 | 66 | 1014.3 |
| 20260905091904 | 78 | 62 | 0.0 | 0.9 | 0.00 | 0.00 | 0.00 | 66 | 1014.4 |
| 20260905091403 | 78 | 62 | 0.0 | 0.9 | 0.00 | 0.00 | 0.00 | 65 | 1014.3 |
| 20260905090904 | 78 | 62 | 0.0 | 0.9 | 0.00 | 0.00 | 0.00 | 65 | 1014.4 |
| 20260905090404 | 78 | 62 | 0.0 | 0.9 | 0.00 | 0.00 | 0.00 | 64 | 1014.4 |
| 20260905085404 | 79 | 62 | 0.0 | 0.9 | 0.00 | 0.00 | 0.00 | 64 | 1014.4 |
| 20260905084903 | 79 | 62 | 0.0 | 0.9 | 0.00 | 0.00 | 0.00 | 65 | 1014.3 |
| 20260905084404 | 79 | 62 | 0.0 | 0.9 | 0.00 | 0.00 | 0.00 | 63 | 1014.3 |
| 20260905083903 | 79 | 62 | 0.0 | 0.9 | 0.00 | 0.00 | 0.00 | 63 | 1014.4 |
| 20260905083403 | 79 | 62 | 0.0 | 0.9 | 0.00 | 0.00 | 0.00 | 63 | 1014.4 |
| 20260905082904 | 80 | 62 | 0.0 | 0.9 | 0.00 | 0.00 | 0.00 | 63 | 1014.4 |
| 20260905081903 | 80 | 62 | 0.0 | 0.0 | 0.00 | 0.00 | 0.00 | 63 | 1014.6 |
| 20260905080903 | 80 | 62 | 0.0 | 0.9 | 0.00 | 0.00 | 0.00 | 61 | 1014.7 |
| 20260905080404 | 80 | 62 | 0.0 | 0.9 | 0.00 | 0.00 | 0.00 | 61 | 1014.7 |
| 20260905075904 | 80 | 62 | 0.0 | 0.0 | 0.00 | 0.00 | 0.00 | 62 | 1014.7 |
| 20260905075403 | 80 | 62 | 0.0 | 0.0 | 0.00 | 0.00 | 0.00 | 61 | 1014.7 |
| 20260905074903 | 81 | 62 | 0.0 | 0.0 | 0.00 | 0.00 | 0.00 | 60 | 1014.7 |
| 20260905074404 | 81 | 62 | 0.0 | 0.0 | 0.00 | 0.00 | 0.00 | 59 | 1014.7 |
| 20260905073904 | 81 | 62 | 0.0 | 0.0 | 0.00 | 0.00 | 0.00 | 59 | 1014.7 |
| 20260905073404 | 81 | 62 | 0.0 | 0.0 | 0.00 | 0.00 | 0.00 | 59 | 1014.6 |
| 20260905072903 | 81 | 62 | 0.0 | 0.9 | 0.00 | 0.00 | 0.00 | 58 | 1014.6 |
| 20260905072403 | 81 | 62 | 0.0 | 0.9 | 0.00 | 0.00 | 0.00 | 58 | 1014.6 |
| 20260905071903 | 81 | 62 | 0.0 | 0.0 | 0.00 | 0.00 | 0.00 | 58 | 1014.6 |
| 20260905071403 | 81 | 62 | 0.0 | 0.0 | 0.00 | 0.00 | 0.00 | 58 | 1014.4 |
| 20260905070903 | 82 | 62 | 0.0 | 0.0 | 0.00 | 0.00 | 0.00 | 58 | 1014.4 |
| 20260905070404 | 82 | 62 | 0.0 | 0.0 | 0.00 | 0.00 | 0.00 | 57 | 1014.4 |
| 20260905065903 | 82 | 62 | 0.0 | 0.9 | 0.00 | 0.00 | 0.00 | 57 | 1014.4 |
| 20260905065403 | 82 | 62 | 0.0 | 0.9 | 0.00 | 0.00 | 0.00 | 56 | 1014.5 |
| 20260905064403 | 83 | 62 | 0.0 | 1.7 | 0.00 | 0.00 | 0.00 | 55 | 1014.5 |
| 20260905063903 | 83 | 62 | 0.0 | 1.7 | 0.00 | 0.00 | 0.00 | 54 | 1014.3 |
| 20260905063403 | 83 | 80 | 0.9 | 1.7 | 0.00 | 0.00 | 0.00 | 55 | 1014.4 |
| 20260905062903 | 82 | 80 | 0.0 | 2.6 | 0.00 | 0.00 | 0.00 | 55 | 1014.4 |
| 20260905062404 | 82 | 24 | 0.9 | 2.6 | 0.00 | 0.00 | 0.00 | 56 | 1014.5 |
| 20260905061904 | 82 | 127 | 0.0 | 0.0 | 0.00 | 0.00 | 0.00 | 57 | 1014.4 |
| 20260905061404 | 82 | 127 | 0.0 | 0.0 | 0.00 | 0.00 | 0.00 | 57 | 1014.3 |
| 20260905060904 | 83 | 127 | 0.0 | 0.0 | 0.00 | 0.00 | 0.00 | 55 | 1014.3 |